Regional Weather Roundup
Issued by NWS Jackson, KY

Home | Current Version | Previous Version | Text Only | Print | Product List | Glossary Off
Versions: 1 2 3 4 5 6 7 8 9 10 11 12 13 14 15 16 17 18 19 20 21 22 23 24 25 26 27 28 29 30 31 32 33 34 35 36 37 38 39 40 41 42 43 44 45 46 47 48 49 50

000
ASUS43 KJKL 291311
RWRJKL

EAST KENTUCKY HOURLY WEATHER ROUNDUP
NATIONAL WEATHER SERVICE JACKSON KY
900 AM EDT TUE JUL 29 2014

NOTE: "FAIR" INDICATES FEW OR NO CLOUDS BELOW 12,000 FEET WITH
NO SIGNIFICANT WEATHER AND/OR OBSTRUCTIONS TO VISIBILITY.

* THESE REPORTS ARE NOT UNDER NWS QUALITY CONTROL AND MAY NOT
  REPORT WEATHER SUCH AS PRECIPITATION AND FOG.

KYZ079-080-083-085-087-088-110-112-115-119-120-291400
...EASTERN KENTUCKY...

CITY           SKY/WX    TMP DP  RH WIND       PRES   REMARKS
JACKSON        MOSUNNY   57  53  86 NW3       30.05R
LONDON         SUNNY     61  52  72 N7        30.06R
SOMERSET*      SUNNY     59  50  72 NW6       30.08R
MONTICELLO*    SUNNY     63  53  69 N5        30.09R
WILLIAMSBURG*  PTSUNNY   59  57  94 N5        30.06R
MIDDLESBORO*   CLOUDY    60  57  92 CALM      30.06R
HARLAN APT*    PTSUNNY   57  57 100 MISG      30.05S
HAZARD APT*    PTSUNNY   59  57  94 CALM      30.05R
BLACK MTN*       N/A     55  52  88 CALM        N/A
PIKEVILLE APT* CLOUDY    59  57  94 CALM      30.04R
BIG SANDY*     CLOUDY    59  56  89 NW3       30.04R
MOREHEAD APT*  CLOUDY    54  52  94 NW5       30.07R
$$

KYZ035-036-041-042-044-050-067-078-099-291400
...CENTRAL KENTUCKY...

CITY           SKY/WX    TMP DP  RH WIND       PRES   REMARKS
MT STERLING*   MOSUNNY   55  52  88 CALM      30.06S
FLEMING/MASON* PTSUNNY   55  52  88 NW8       30.06R
DANVILLE*      SUNNY     55  50  82 NW6       30.08R
RICHMOND*      SUNNY     55  50  82 NW5       30.06R
LEXINGTON      SUNNY     57  52  83 NW8       30.07R
FRANKFORT      SUNNY     55  51  86 NW7       30.06R
$$

KYZ091>093-OHZ055-061-077-WVZ005-015-034-035-042-291400
...SOUTHERN OHIO/WEST VIRGINIA...

CITY           SKY/WX    TMP DP  RH WIND       PRES   REMARKS
COVINGTON      MOSUNNY   56  51  84 N8        30.06R
COLUMBUS       PTSUNNY   63  52  67 N5        30.03R
DAYTON         MOSUNNY   58  51  78 N8        30.07R
WILMINGTON     CLOUDY    58  54  86 N8        30.04R
HUNTINGTON     CLOUDY    59  56  89 CALM      30.01R
CHARLESTON     DRIZZLE   61  60  97 SW3       30.01R
PINEVILLE*     CLOUDY    63  62  97 MISG      30.08R
BECKLEY        CLOUDY    59  56  89 SW6       30.04R
BLUEFIELD      CLOUDY    60  55  83 W7        30.06S
$$

VAZ002-007-008-TNZ017-027-036-066-071-291400
...SOUTHWEST VIRGINIA/EAST TENNESSEE...

CITY           SKY/WX    TMP DP  RH WIND       PRES   REMARKS
WISE*          PTSUNNY   61  55  82 W3        30.07S
JONESVILLE*    SUNNY     63  55  77 CALM      30.06S
ABINGDON*      SUNNY     64  58  80 NW6       30.05R
BRISTOL        MOSUNNY   64  58  80 CALM      30.04R
KNOXVILLE      PTSUNNY   66  59  78 N7        30.02R
OAK RIDGE      PTSUNNY   66  59  78 E5        30.04R
CROSSVILLE     CLOUDY    61  57  87 N5        30.07R
NASHVILLE      SUNNY     65  50  58 N13       30.10R
$$

...KEY TO REMARKS...
VSB - VISIBILITY IN MILES
WCI - WIND CHILL INDEX
HX  - HEAT INDEX

$$


USA.gov is the U.S. government's official web portal to all federal, state and local government web resources and services.